Hourly Data Report for October 06, 2017

All times are specified in Local Standard Time (LST). Add 1 hour to adjust for Daylight Saving Time where and when it is observed.

FISHER BRANCH (AUT)
MANITOBA

51°05'00.100" N
97°33'16.200" W
253.00 m
50309J6
71442
WSZ

Download Data

Hourly Data (October 2017)
Hourly Data Report for October 6, 2017
Temp Definition
°C
Dew Point Temp Definition
°C
Rel Hum Definition
%
Wind Dir Definition
10's deg

Wind Spd Definition
km/h
Visibility Definition
km
Stn Press Definition
kPa
Hmdx Definition


Wind Chill Definition


Weather Definition


TIME
00:00 5.3 0.6 72 20 13   98.51     LegendNANA
01:00 4.3 1.4 81 19 11   98.48     LegendNANA
02:00 3.8 2.1 89 19 10   98.42     LegendNANA
03:00 3.4 2.1 91 19 9   98.35     LegendNANA
04:00 4.9 3.1 88 20 9   98.30     LegendNANA
05:00 5.6 3.6 87 20 11   98.25     LegendNANA
06:00 4.8 3.4 91 19 11   98.17     LegendNANA
07:00 5.3 3.8 90 19 12   98.14     LegendNANA
08:00 7.2 4.8 85 19 16   98.10     LegendNANA
09:00 10.6 5.4 70 20 18   98.03     LegendNANA
10:00 13.5 4.2 53 21 20   97.95     LegendNANA
11:00 15.2 3.2 44 21 18   97.86     LegendNANA
12:00 16.5 2.6 39 22 21   97.79     LegendNANA
13:00 16.6 2.3 38 20 27   97.68     LegendNANA
14:00 16.7 1.2 35 21 23   97.54     LegendNANA
15:00 16.6 0.8 34 20 23   97.44     LegendNANA
16:00 16.7 0.9 34 20 22   97.32     LegendNANA
17:00 16.0 0.4 35 19 17   97.22     LegendNANA
18:00 13.2 1.4 44 18 13   97.15     LegendNANA
19:00 11.0 1.5 52 17 9   97.08     LegendNANA
20:00 10.0 2.1 58 17 12   96.97     LegendNANA
21:00 8.9 2.6 65 17 10   96.87     LegendNANA
22:00 9.9 3.6 65 16 14   96.76     LegendNANA
23:00 9.8 4.2 68 16 15   96.65     LegendNANA

Notes on Data Quality.

Legend

  • E = Estimated
  • M = Missing
  • NA = Not Available
  • ‡ = Partner data that is not subject to review by the National Climate Archives
Date modified: